Погода в Мезени

Россия / Архангельская область     65°50′38″N   44°14′36″E
темп.,
°C
ветер,
м/с
пор.,
м/с
влажн.,
%
обл.,
%
осадки,
мм/ч
давл.,
гПа
погр.,
м
18 января, пн
пн1800:00−21вюв239886 0.0 100935
03:00−22вюв239873 0.0 101059
06:00−22юв249888 0.0 101085
09:00−22юв259894 0.0 1011126
12:00−19ююв4894100 0.0 1010264
15:00−18ююв4994100 0.0 1009284
18:00−16ю4995100 0.6 1007325
21:00−13ю41095100 2.3 1006365
19 января, вт
вт1900:00−9ююз4995100 1.1 1004378
03:00−7ююз4895100 2.3 1005410
06:00−7юз4895100 1.4 1004417
09:00−7юз4895100 2.3 1004416
12:00−8юз3795100 0.4 1004315
15:00−9юз3795100 0.9 1004309
18:00−10юз369699 0.5 1004225
21:00−11юз2397100 0.9 100588
20 января, ср
ср2000:00−11зюз229796 0.3 100569
03:00−13зсз239794 0.5 100684
06:00−14с249789 0.2 1007120
09:00−18с369692 0.3 1009239
12:00−21ссв3796100 0.1 1011299
15:00−21с379699 0.1 1013314
18:00−25с379693 0.0 1014226
21:00−28с259750 0.0 1015126
21 января, чт
чт2100:00−29с25960 0.0 1015101
03:00−30с23970 0.0 101679
06:00−31ссв23970 0.0 101552
09:00−31ссв23970 0.0 101551
12:00−31ссв23970 0.0 101580
15:00−31ссв22975 0.0 101538
18:00−32ссв239723 0.0 101576
21:00−33ссв249724 0.0 101588
22 января, пт
пт2200:00−34ссв24965 0.0 101685
03:00−34ссв239721 0.0 101663
06:00−33ссв229858 0.0 101845
09:00−33ссв229751 0.0 101922
12:00−32св22960 0.0 102135
15:00−33св22960 0.0 102219
18:00−33всв12960 0.0 102419
21:00−33всв12970 0.0 102519